Weather History for La Veta Pass, CO

Change the Weather History Date:

Sunday, March 16, 2014

  Actual Average (KTAD) Record (KTAD)
Temperature  
Mean Temperature 28 °F 42 °F  
Max Temperature 44 °F 58 °F 78 °F (2012)
Min Temperature 12 °F 27 °F 10 °F (1956)
Degree Days  
Heating Degree Days 37 23  
Month to date heating degree days 393  
Since 1 July heating degree days 4515  
Cooling Degree Days 0 0  
Month to date cooling degree days 0  
Year to date cooling degree days 0  
Moisture  
Dew Point 11 °F    
Average Humidity 53    
Maximum Humidity 93    
Minimum Humidity 27    
Precipitation  
Precipitation 0.00 in 0.03 in 0.66 in (1998)
Month to date precipitation 0.43  
Year to date precipitation 1.32  
Sea Level Pressure  
Sea Level Pressure 30.24 in    
Wind  
Wind Speed 7 mph (WNW)    
Max Wind Speed 13 mph    
Max Gust Speed 22 mph    
Visibility 10 miles    
Events      
T = Trace of Precipitation, MM = Missing Value Source: NWS Daily Summary

Daily Weather History Graph

Daily Weather History Graph

Search for Another Location

Airport:

Trip Planner

Search our weather history database for the weather conditions in past years. The results will help you decide how hot, cold, wet, or windy it might be!

Date:

Astronomy

Mar. 16, 2014 Rise Set
Actual Time 7:10 AM MDT 7:08 PM MDT
Civil Twilight 6:44 AM MDT 7:34 PM MDT
Nautical Twilight 6:13 AM MDT 8:05 PM MDT
Astronomical Twilight 5:43 AM MDT 8:36 PM MDT
Moon 7:27 PM MDT (3/16) 6:55 AM MDT (3/16)
Length of Visible Light 12h 50m
Length of Day
11h 58m
Full, 100% of the Moon is Illuminated
Mar 16
Full
Mar 23
Last Quarter
Mar 30
New
Apr 7
First Quarter
Apr 15
Full

Hourly Weather History & Observations

Time (MDT) Temp. Windchill Dew Point Humidity Pressure Visibility Wind Dir Wind Speed Gust Speed Precip Events Conditions
12:10 AM 15.8 °F 5.1 °F 14.0 °F 93% 30.25 in 10.0 mi ENE 8.1 mph - N/A   Overcast
12:33 AM 15.8 °F 6.1 °F 14.0 °F 93% 30.27 in 5.0 mi ENE 6.9 mph - N/A   Overcast
12:48 AM 15.8 °F 7.2 °F 14.0 °F 93% 30.27 in 1.0 mi East 5.8 mph - N/A   Overcast
1:12 AM 15.8 °F 10.2 °F 12.2 °F 86% 30.27 in 2.5 mi East 3.5 mph - N/A   Overcast
1:33 AM 15.8 °F 10.2 °F 12.2 °F 86% 30.26 in 10.0 mi ENE 3.5 mph - N/A   Mostly Cloudy
1:53 AM 15.8 °F 6.1 °F 12.2 °F 86% 30.26 in 10.0 mi North 6.9 mph - N/A   Scattered Clouds
2:12 AM 14.0 °F 2.9 °F 12.2 °F 93% 30.25 in 10.0 mi North 8.1 mph - N/A   Clear
2:32 AM 14.0 °F 2.9 °F 12.2 °F 93% 30.25 in 10.0 mi North 8.1 mph - N/A   Clear
2:48 AM 14.0 °F 3.9 °F 10.4 °F 86% 30.26 in 10.0 mi North 6.9 mph - N/A   Clear
3:13 AM 14.0 °F 1.2 °F 10.4 °F 86% 30.25 in 10.0 mi NNW 10.4 mph 18.4 mph N/A   Clear
3:32 AM 15.8 °F 2.7 °F 10.4 °F 79% 30.25 in 10.0 mi NNW 11.5 mph 20.7 mph N/A   Clear
3:51 AM 15.8 °F 3.4 °F 8.6 °F 73% 30.25 in 10.0 mi NW 10.4 mph 19.6 mph N/A   Clear
4:13 AM 14.0 °F 2.0 °F 8.6 °F 79% 30.24 in 10.0 mi NW 9.2 mph 17.3 mph N/A   Clear
4:31 AM 15.8 °F 5.1 °F 6.8 °F 68% 30.24 in 10.0 mi NNW 8.1 mph - N/A   Clear
4:51 AM 14.0 °F 6.5 °F 6.8 °F 73% 30.24 in 10.0 mi West 4.6 mph - N/A   Clear
5:13 AM 15.8 °F 7.2 °F 5.0 °F 62% 30.24 in 10.0 mi WSW 5.8 mph 17.3 mph N/A   Clear
5:33 AM 12.2 °F -1.0 °F 6.8 °F 79% 30.23 in 10.0 mi West 10.4 mph 17.3 mph N/A   Clear
5:51 AM 12.2 °F 1.7 °F 6.8 °F 79% 30.23 in 10.0 mi West 6.9 mph 19.6 mph N/A   Clear
6:12 AM 14.0 °F 6.5 °F 6.8 °F 73% 30.23 in 10.0 mi WSW 4.6 mph - N/A   Clear
6:33 AM 12.2 °F 0.7 °F 5.0 °F 73% 30.23 in 10.0 mi West 8.1 mph - N/A   Clear
6:53 AM 12.2 °F 2.9 °F 5.0 °F 73% 30.23 in 10.0 mi West 5.8 mph - N/A   Clear
7:12 AM 12.2 °F 1.7 °F 5.0 °F 73% 30.23 in 10.0 mi West 6.9 mph - N/A   Clear
7:32 AM 12.2 °F 1.7 °F 5.0 °F 73% 30.23 in 10.0 mi WSW 6.9 mph - N/A   Clear
7:50 AM 14.0 °F 5.1 °F 6.8 °F 73% 30.23 in 10.0 mi WSW 5.8 mph - N/A   Clear
8:13 AM 14.0 °F 2.9 °F 6.8 °F 73% 30.24 in 10.0 mi SW 8.1 mph - N/A   Clear
8:31 AM 15.8 °F 5.1 °F 6.8 °F 68% 30.25 in 10.0 mi SW 8.1 mph - N/A   Clear
8:50 AM 19.4 °F 10.4 °F 8.6 °F 63% 30.27 in 10.0 mi SW 6.9 mph - N/A   Clear
9:05 AM 21.2 °F 12.6 °F 10.4 °F 63% 30.27 in 10.0 mi SW 6.9 mph - N/A   Clear
9:33 AM 21.2 °F 12.6 °F 10.4 °F 63% 30.28 in 10.0 mi West 6.9 mph - N/A   Clear
9:53 AM 23.0 °F 15.8 °F 10.4 °F 59% 30.29 in 10.0 mi WNW 5.8 mph - N/A   Clear
10:09 AM 26.6 °F 22.6 °F 10.4 °F 51% 30.30 in 10.0 mi NW 3.5 mph - N/A   Clear
10:33 AM 32.0 °F 24.8 °F 12.2 °F 44% 30.30 in 10.0 mi NNW 8.1 mph - N/A   Clear
10:48 AM 32.0 °F 28.7 °F 12.2 °F 44% 30.30 in 10.0 mi NW 3.5 mph - N/A   Clear
11:10 AM 33.8 °F - 12.2 °F 41% 30.30 in 10.0 mi Calm Calm - N/A   Clear
11:32 AM 33.8 °F 27.7 °F 12.2 °F 41% 30.30 in 10.0 mi NNW 6.9 mph - N/A   Clear
11:49 AM 35.6 °F 30.7 °F 10.4 °F 35% 30.30 in 10.0 mi NW 5.8 mph - N/A   Clear
12:12 PM 37.4 °F 33.8 °F 14.0 °F 38% 30.29 in 10.0 mi West 4.6 mph - N/A   Clear
12:32 PM 39.2 °F - 14.0 °F 36% 30.29 in 10.0 mi Calm Calm - N/A   Clear
12:53 PM 39.2 °F - 14.0 °F 36% 30.27 in 10.0 mi Calm Calm - N/A   Clear
1:13 PM 41.0 °F 37.1 °F 12.2 °F 31% 30.27 in 10.0 mi NW 5.8 mph - N/A   Clear
1:33 PM 41.0 °F 39.0 °F 14.0 °F 33% 30.26 in 10.0 mi NW 3.5 mph - N/A   Clear
1:53 PM 41.0 °F 38.0 °F 12.2 °F 31% 30.25 in 10.0 mi WNW 4.6 mph - N/A   Clear
2:09 PM 42.8 °F 36.2 °F 14.0 °F 31% 30.25 in 10.0 mi NNW 12.7 mph 19.6 mph N/A   Clear
2:32 PM 42.8 °F 37.0 °F 14.0 °F 31% 30.25 in 10.0 mi NNW 10.4 mph 19.6 mph N/A   Clear
2:52 PM 44.6 °F 40.2 °F 14.0 °F 29% 30.23 in 10.0 mi NW 8.1 mph 16.1 mph N/A   Clear
3:13 PM 44.6 °F 39.2 °F 14.0 °F 29% 30.23 in 10.0 mi NW 10.4 mph 18.4 mph N/A   Clear
3:33 PM 44.6 °F 40.7 °F 14.0 °F 29% 30.23 in 10.0 mi NNW 6.9 mph 17.3 mph N/A   Clear
3:50 PM 42.8 °F 40.1 °F 12.2 °F 29% 30.23 in 10.0 mi NW 4.6 mph 17.3 mph N/A   Clear
4:11 PM 42.8 °F 39.3 °F 12.2 °F 29% 30.22 in 10.0 mi NW 5.8 mph 17.3 mph N/A   Clear
4:26 PM 44.6 °F - 12.2 °F 27% 30.22 in 10.0 mi Calm Calm - N/A   Clear
4:53 PM 42.8 °F 41.1 °F 12.2 °F 29% 30.23 in 10.0 mi NW 3.5 mph 20.7 mph N/A   Clear
5:13 PM 42.8 °F 38.6 °F 12.2 °F 29% 30.23 in 10.0 mi NW 6.9 mph - N/A   Clear
5:33 PM 41.0 °F 38.0 °F 12.2 °F 31% 30.21 in 10.0 mi West 4.6 mph - N/A   Clear
5:52 PM 39.2 °F - 12.2 °F 33% 30.21 in 10.0 mi Calm Calm - N/A   Clear
6:13 PM 39.2 °F 35.9 °F 12.2 °F 33% 30.21 in 10.0 mi WSW 4.6 mph - N/A   Clear
6:32 PM 37.4 °F 32.8 °F 12.2 °F 36% 30.21 in 10.0 mi West 5.8 mph - N/A   Clear
6:53 PM 35.6 °F 30.7 °F 12.2 °F 38% 30.21 in 10.0 mi WNW 5.8 mph - N/A   Clear
7:05 PM 33.8 °F 29.6 °F 10.4 °F 38% 30.21 in 10.0 mi West 4.6 mph - N/A   Clear
7:33 PM 33.8 °F 27.7 °F 10.4 °F 38% 30.20 in 10.0 mi SW 6.9 mph - N/A   Clear
7:52 PM 33.8 °F 28.6 °F 12.2 °F 41% 30.19 in 10.0 mi SW 5.8 mph - N/A   Clear
8:13 PM 33.8 °F 27.7 °F 12.2 °F 41% 30.19 in 10.0 mi WSW 6.9 mph - N/A   Clear
8:32 PM 32.0 °F 25.6 °F 12.2 °F 44% 30.19 in 10.0 mi WSW 6.9 mph - N/A   Clear
8:45 PM 33.8 °F 24.8 °F 12.2 °F 41% 30.19 in 10.0 mi WNW 12.7 mph 19.6 mph N/A   Clear
9:10 PM 32.0 °F 24.8 °F 10.4 °F 41% 30.19 in 10.0 mi West 8.1 mph - N/A   Clear
9:32 PM 32.0 °F 23.0 °F 10.4 °F 41% 30.18 in 10.0 mi WNW 11.5 mph 19.6 mph N/A   Clear
9:48 PM 32.0 °F 23.0 °F 10.4 °F 41% 30.19 in 10.0 mi WNW 11.5 mph 21.9 mph N/A   Clear
10:08 PM 32.0 °F 24.2 °F 8.6 °F 38% 30.20 in 10.0 mi West 9.2 mph 17.3 mph N/A   Clear
10:32 PM 32.0 °F 25.6 °F 8.6 °F 38% 30.20 in 10.0 mi SW 6.9 mph - N/A   Clear
10:51 PM 32.0 °F 25.6 °F 8.6 °F 38% 30.19 in 10.0 mi SW 6.9 mph - N/A   Clear
11:13 PM 32.0 °F 27.5 °F 8.6 °F 38% 30.19 in 10.0 mi SW 4.6 mph - N/A   Clear
11:23 PM 30.2 °F 23.4 °F 8.6 °F 40% 30.18 in 10.0 mi SW 6.9 mph - N/A   Clear
11:38 PM 30.2 °F 21.9 °F 8.6 °F 40% 30.18 in 10.0 mi SW 9.2 mph - N/A   Clear